#timestamp,LO_Frequency,Hit,StdDev 
1711472415.2,286047014.7,N
1711472435.0,286047013.3,N
1711472435.9,286047013.3,N
1711472455.8,286047011.4,N
1711472475.6,286047009.4,N
1711472495.4,286047011.7,N
1711472515.3,286047011.2,N
1711472535.1,286047011.3,N
1711472555.8,286047013.1,Y
1711472575.7,286047001.3,P
1711472595.5,286047008.1,N
1711472615.4,286047012.4,P
1711472635.2,286047010.2,N
1711472655.0,286047009.8,N
1711472655.9,286047009.8,N
1711472675.8,286047007.2,N
1711472695.6,286047005.1,N
1711472715.4,286047005.4,N
1711472735.3,286047007.1,N
1711472755.1,286047006.8,N
1711472775.8,286047004.9,N
1711472795.7,286047007.2,N
1711472815.5,286047003.4,N
1711472835.4,286047003.3,N
1711472855.2,286047004.5,N
1711472875.0,286047007.3,N
1711472875.9,286047007.3,N
1711472895.8,286047006.7,N
1711472915.6,286047008.4,Y
1711472935.5,286047003.0,P
1711472955.3,286047014.8,P
1711472975.1,286047015.9,P
1711472995.9,286047016.0,N
1711473015.7,286047014.5,N
1711473035.5,286047014.7,N
1711473055.4,286047014.5,Y
1711473075.2,286047003.0,P
1711473095.1,286047002.7,N
1711473096.0,286047002.7,N
1711473115.8,286047001.5,N
1711473135.6,286047004.6,N
1711473155.5,286046998.2,N
1711473175.3,286046995.2,N
1711473195.1,286046995.5,N
1711473215.9,286046996.2,N
1711473235.7,286046997.5,N
1711473255.6,286046998.7,N
1711473275.4,286047000.9,N
1711473295.2,286047004.4,N
1711473315.1,286047000.6,N
1711473316.0,286047000.6,N
1711473335.8,286046998.7,N
1711473355.6,286047001.1,N
1711473375.5,286046997.9,N
1711473395.3,286047001.9,N
1711473415.2,286047003.8,N
1711473435.9,286047013.9,Y
1711473455.7,286047011.3,P
1711473475.6,286047011.0,N
1711473495.4,286047008.7,N
1711473515.2,286047008.1,N
1711473535.1,286047010.2,N
1711473536.0,286047010.2,N
1711473555.8,286047010.3,Y
1711473575.7,286046996.5,P
1711473595.5,286046998.4,N
1711473615.3,286046996.7,N
1711473635.2,286046993.5,N
1711473655.0,286046994.3,N
1711473655.9,286046994.3,N
1711473675.7,286046994.0,N
1711473695.6,286046996.1,N
1711473715.4,286046997.5,N
1711473735.3,286046993.3,N
1711473755.1,286046994.8,N
1711473756.0,286046994.8,N
1711473775.8,286046992.8,N
1711473795.7,286046990.4,N
1711473815.5,286046996.0,N
1711473835.3,286046998.9,N
1711473855.2,286047000.7,N
1711473875.0,286047002.8,N
1711473875.9,286047002.8,N
1711473895.8,286047003.2,N
1711473915.6,286047005.4,N
1711473935.4,286047003.5,N
1711473955.3,286047008.8,N
1711473975.1,286047006.2,N
1711473995.8,286047012.3,N
1711474015.7,286047009.5,N
1711474035.5,286047006.5,N
1711474055.4,286047003.9,N
1711474075.2,286047005.4,N
1711474095.0,286047010.3,N
1711474095.9,286047010.3,N
1711474115.8,286047008.6,N
1711474135.6,286047004.5,N
1711474155.5,286047007.5,N
1711474175.3,286047010.6,N
1711474195.1,286047007.4,N
1711474215.9,286047008.6,N
1711474235.7,286047010.7,N
1711474255.5,286047004.7,N
1711474275.4,286046998.9,N
1711474295.2,286046999.2,N
1711474315.1,286046996.5,N
1711474316.0,286046996.5,N
1711474335.8,286047005.2,N
1711474355.6,286047006.7,N
1711474375.5,286047004.6,N
1711474395.3,286047005.9,N
1711474415.1,286047000.2,N
1711474435.9,286047001.0,N
1711474455.7,286047002.7,N
1711474475.6,286047003.1,N
1711474495.4,286047003.2,N
1711474515.2,286047002.6,N
1711474535.1,286047000.6,N
1711474536.0,286047000.6,N
1711474555.8,286047003.9,N
1711474575.7,286046996.6,N
1711474595.5,286046998.8,N
1711474615.3,286046995.6,N
1711474635.2,286046992.4,N
1711474655.9,286046993.3,N
1711474675.7,286046994.6,N
1711474695.6,286046996.4,N
1711474715.4,286046996.0,N
1711474735.3,286046991.8,N
1711474755.1,286046994.4,N
1711474756.0,286046994.4,N
1711474775.8,286046988.6,N
1711474795.7,286046991.4,N
1711474815.5,286046989.0,N
1711474835.3,286046989.2,N
1711474855.2,286046989.5,N
1711474875.0,286046990.9,N
1711474875.9,286046990.9,N
1711474895.8,286046990.5,N
1711474915.6,286046991.2,N
1711474935.4,286046988.5,N
1711474955.3,286046990.3,N
1711474975.1,286046989.3,N
1711474995.9,286046985.6,N
1711475015.7,286046982.2,Y
1711475035.5,286046991.3,P
1711475055.4,286046994.7,P
1711475075.2,286046990.5,P
1711475095.1,286046992.5,Y
1711475096.0,286046992.5,P
1711475115.8,286047007.0,P
1711475135.6,286047013.4,N
1711475155.5,286047013.2,N
1711475175.3,286047017.0,N
1711475195.2,286047016.3,N
1711475215.9,286047015.7,N
1711475235.7,286047018.0,N
1711475255.6,286047015.8,N
1711475275.4,286047017.9,N
1711475295.3,286047021.8,N
1711475315.1,286047026.7,N
1711475316.0,286047026.7,N
1711475335.8,286047029.6,N
1711475355.7,286047022.7,N
1711475375.5,286047023.1,N
1711475395.3,286047022.7,N
1711475415.2,286047017.2,N
1711475435.0,286047016.0,N
1711475435.9,286047016.0,N
1711475455.8,286047012.1,N
1711475475.6,286047006.1,N
1711475495.4,286047008.2,N
1711475515.3,286047009.4,N
1711475535.1,286047010.2,N
1711475555.9,286047012.4,N
1711475575.7,286047008.6,N
1711475595.5,286047007.8,N
1711475615.4,286047011.0,N
1711475635.2,286047010.8,N
1711475655.0,286047011.5,N
1711475655.9,286047011.5,N
1711475675.8,286047011.1,N
1711475695.6,286047010.6,N
1711475715.5,286047009.9,N
1711475735.3,286047001.3,N
1711475755.1,286047001.2,N
1711475775.9,286047005.6,N
1711475795.7,286047010.6,N
1711475815.6,286047008.7,N
1711475835.4,286047006.9,N
1711475855.2,286047007.1,N
1711475875.1,286047008.7,N
1711475876.0,286047008.7,N
1711475895.8,286047010.1,N
1711475915.7,286047017.1,Y
1711475935.5,286047009.8,P
1711475955.3,286047008.3,P
1711475975.2,286047003.2,P
1711475995.0,286047003.7,N
1711475995.9,286047003.7,N
